Wind_Speed
7 8 8 8 7 7 8 8 8 8 8 9 9 10 10 11 11 10 10 10 10 10 9 9 9 9 10 10 10 10 10 11 11 12 12 12 12 13 13 14 14 14 14
9 9 9 9 8 9 9 9 9 9 9 10 10 11 11 11 11 11 11 10 11 11 11 10 10 11 11 11 11 11 12 12 13 13 13 13 13 14 14 15 15 15 15
9 9 9 10 10 10 10 10 10 11 11 10 11 11 11 11 12 12 12 11 11 11 11 11 11 12 12 13 13 13 13 14 14 15 15 15 15 15 15 16 16 16 16
9 9 10 10 11 11 11 11 11 11 11 11 11 12 12 12 12 12 12 12 12 12 12 12 13 13 13 14 14 14 15 15 15 16 16 16 16 16 16 17 17 17 17
10 10 11 12 12 12 12 12 13 12 11 12 12 13 13 13 13 13 13 13 13 13 13 13 14 14 14 15 15 15 16 16 16 16 17 17 17 17 18 18 18 19 18
11 12 12 13 13 13 13 13 12 12 12 12 13 14 14 14 14 14 14 14 14 14 15 15 15 16 15 15 16 17 17 17 17 18 19 18 18 18 18 18 19 20 19
13 13 13 13 13 13 13 14 12 13 13 13 14 14 15 15 15 15 15 15 16 16 16 16 17 17 17 17 17 18 19 19 19 19 20 20 19 20 20 19 19 20 20
14 14 14 13 14 14 14 14 14 15 15 15 15 16 16 16 17 16 16 17 17 17 17 17 18 18 18 18 19 19 20 20 20 21 21 21 21 21 21 21 20 20 21
14 14 14 14 14 14 14 14 15 16 16 17 17 18 17 17 17 17 18 18 18 19 19 19 19 19 20 20 20 20 21 21 22 22 22 22 22 22 22 22 21 22 22
15 15 15 15 14 15 15 16 17 17 18 18 19 19 18 18 18 19 19 20 20 20 20 20 20 20 20 20 21 21 22 23 23 23 23 22 22 23 23 22 22 23 23
16 16 16 16 16 17 17 18 18 19 20 21 21 20 20 20 20 20 20 21 21 21 22 21 22 21 21 21 21 22 22 23 23 23 23 23 22 23 24 23 23 23 24
17 17 17 18 18 18 19 20 20 21 22 23 23 22 22 21 21 21 21 21 22 23 23 24 23 23 22 22 22 23 23 23 23 23 24 23 24 24 24 25 25 25 24
18 18 18 19 19 20 20 21 22 23 23 23 24 23 23 23 22 22 22 22 23 24 24 24 24 24 24 24 24 24 23 24 23 23 23 23 24 25 25 25 26 26 25
19 19 19 19 19 20 21 23 23 24 24 24 24 24 24 24 23 24 23 24 24 25 24 24 24 24 25 26 25 25 24 24 24 24 24 24 24 24 25 26 25 26 26
19 19 20 20 20 21 22 23 24 24 25 25 26 26 25 24 24 25 26 26 26 25 25 25 26 26 27 27 27 26 26 25 25 25 25 25 24 25 25 25 25 26 25
20 20 20 21 21 22 22 23 24 25 25 26 26 27 26 25 26 26 27 26 27 27 27 27 27 27 27 28 27 27 27 26 26 26 26 26 26 25 25 25 25 26 26
20 20 21 21 22 22 22 23 24 25 25 26 26 27 26 26 27 27 27 27 27 28 28 28 28 28 28 28 28 28 27 27 26 26 26 26 26 25 25 25 25 25 26
19 20 21 21 22 23 24 24 24 25 25 25 26 26 27 27 28 28 28 28 28 28 29 29 29 29 29 28 28 27 27 26 26 26 26 26 25 25 25 26 26 26 26
19 21 22 23 23 23 24 25 25 25 25 25 26 26 27 28 28 28 29 29 28 29 30 30 29 29 28 28 27 27 27 26 26 26 26 26 26 26 25 25 25 25 26
20 21 23 23 24 24 25 25 27 27 26 26 27 27 28 28 28 28 28 28 29 29 30 30 29 28 28 28 28 27 27 27 26 26 26 26 26 26 26 25 25 25 25
22 23 23 24 25 25 26 26 27 27 27 27 28 27 28 28 28 28 27 28 30 31 30 29 28 28 28 28 27 27 27 27 27 27 26 26 26 26 25 25 26 26 25
22 23 24 25 26 26 27 27 28 28 28 28 28 27 27 28 28 27 29 29 29 29 28 28 28 28 29 29 28 28 27 27 27 27 26 25 25 26 26 26 26 26 26
24 24 25 25 26 27 27 27 27 28 28 28 29 29 29 29 28 28 28 28 28 29 28 27 28 28 29 28 27 27 26 26 25 25 25 25 25 25 26 26 26 26 26
24 25 25 26 26 26 26 27 27 27 27 28 28 28 28 29 28 28 28 28 29 29 28 28 28 29 29 28 28 28 27 26 25 25 25 26 25 25 25 26 26 27 26
24 24 24 25 25 25 25 26 26 27 27 27 27 27 27 27 27 27 29 29 29 28 29 29 29 29 28 27 27 27 26 26 26 27 25 25 26 25 25 25 25 25 26
24 24 24 25 25 24 25 25 26 26 26 26 26 26 27 26 26 27 28 28 28 28 27 27 27 27 26 27 26 26 26 26 26 26 26 25 25 25 25 25 25 26 26
Wind_Direction
283 288 282 279 279 279 281 287 290 292 294 291 288 288 287 284 281 282 282 281 278 276 274 273 271 272 274 274 275 275 275 275 275 274 270 267 263 262 259 256 255 253 250
282 283 283 279 281 284 287 294 297 295 291 288 289 289 289 288 285 284 282 283 280 276 275 273 273 274 275 276 276 277 277 276 275 273 271 269 266 264 260 256 254 253 251
281 283 286 285 287 288 288 292 292 291 288 285 287 288 288 287 286 284 283 285 282 278 275 273 274 275 277 278 278 278 277 276 274 271 269 268 268 266 262 258 256 256 254
286 288 291 289 288 287 286 288 287 289 288 287 288 287 286 285 287 286 284 285 283 281 279 278 278 278 278 278 278 278 277 277 274 271 269 267 267 266 265 262 259 259 257
288 290 291 292 289 288 288 289 290 291 291 292 293 291 288 287 287 287 286 285 284 283 281 280 280 281 281 278 279 280 281 280 278 275 272 269 267 266 265 264 260 258 257
285 288 287 288 290 286 286 288 290 293 295 295 293 294 293 291 289 289 288 286 286 286 286 284 284 282 282 281 280 281 281 279 278 277 276 272 268 266 265 264 261 259 259
284 285 286 289 289 287 290 291 288 296 297 296 296 298 294 293 292 292 290 290 289 287 287 286 285 284 282 282 281 281 280 279 277 276 276 274 270 268 266 266 263 261 260
283 285 288 291 288 286 291 295 291 295 296 298 296 298 299 295 292 291 291 290 289 288 288 287 285 285 284 282 282 281 280 280 279 276 275 274 272 271 270 268 264 262 262
286 288 292 292 292 288 290 293 293 294 295 296 297 296 297 297 295 292 291 291 290 289 289 288 287 286 286 283 282 281 280 280 280 277 275 275 272 269 269 267 264 262 261
286 289 294 295 294 292 292 293 295 296 296 296 295 295 296 297 297 293 292 291 291 291 289 288 288 288 287 284 283 282 282 282 281 279 275 273 272 270 269 267 264 263 261
285 287 291 293 293 292 291 293 294 295 297 298 296 296 297 296 295 293 291 291 290 291 289 289 288 288 288 287 285 284 284 282 281 280 276 273 271 271 269 267 266 263 261
288 289 292 292 293 293 294 295 295 297 297 296 295 295 296 296 294 293 292 294 293 292 291 291 289 289 288 287 287 285 284 282 282 281 279 275 272 272 272 270 266 264 262
285 288 291 291 293 293 294 295 296 298 298 295 293 293 293 293 293 293 292 294 293 291 291 290 288 288 287 288 286 285 284 283 282 281 281 278 276 273 273 272 269 265 264
285 287 289 290 291 294 296 297 297 298 297 295 294 294 294 293 293 293 292 292 293 291 290 289 288 288 289 289 287 286 284 283 283 283 283 280 279 277 274 271 270 267 265
286 285 287 290 292 293 296 298 298 298 297 296 296 293 292 291 292 292 293 293 292 290 290 290 290 290 290 288 287 286 284 282 283 282 281 280 278 277 274 271 269 266 266
285 287 289 290 292 294 295 297 298 298 298 297 295 295 292 292 293 293 293 293 293 292 291 291 292 290 290 289 287 286 284 283 282 281 281 280 279 277 274 271 268 266 265
284 287 289 289 291 295 296 298 299 299 298 297 296 293 292 292 293 294 292 292 292 293 293 291 292 292 291 290 288 287 285 284 284 282 281 281 279 276 274 272 270 268 266
288 289 291 292 293 295 297 299 302 302 301 299 297 293 291 291 292 293 292 292 292 292 292 291 292 292 291 290 289 288 287 285 284 282 280 278 277 277 274 271 269 268 266
290 290 292 292 294 295 297 299 300 301 301 301 299 296 294 292 291 292 293 292 293 293 293 292 292 290 289 289 289 289 288 287 285 282 280 278 276 276 274 272 270 268 266
293 290 291 291 292 293 295 298 300 300 300 301 300 299 296 293 292 293 295 294 294 294 294 293 291 290 288 288 288 289 288 286 282 281 279 277 275 274 274 272 271 269 267
296 294 293 292 292 293 295 296 298 299 298 299 298 297 296 294 292 293 296 296 296 296 296 293 291 291 290 290 289 288 287 285 282 280 279 275 274 274 274 273 271 268 268
298 297 296 295 293 293 293 294 295 298 298 299 300 299 299 298 296 294 297 298 299 299 296 293 292 291 291 291 289 287 287 284 283 282 278 275 273 273 274 274 272 270 269
300 299 297 296 295 295 294 295 296 297 298 298 299 299 301 301 300 297 297 298 299 300 298 293 292 292 291 289 289 288 287 286 283 280 278 275 274 273 273 272 272 272 270
304 302 300 299 299 297 296 294 295 296 298 299 299 299 301 302 300 298 297 298 297 296 296 295 292 291 292 289 288 288 287 287 286 282 279 277 275 276 274 274 273 272 270
307 306 305 304 302 300 298 296 296 297 299 299 298 299 300 300 300 298 296 296 297 298 297 295 293 292 292 291 288 287 286 285 284 283 281 279 278 277 276 276 275 273 271
309 307 306 306 305 303 301 299 298 300 302 302 302 301 300 302 301 300 298 298 299 298 297 295 293 294 294 291 290 288 285 284 283 282 281 279 277 277 275 275 275 273 272
Height
5886 5885 5885 5886 5885 5885 5885 5885 5884 5884 5883 5883 5883 5882 5882 5881 5881 5880 5880 5879 5879 5878 5878 5877 5876 5876 5875 5875 5875 5874 5874 5874 5874 5874 5874 5874 5874 5874 5874 5875 5875 5876 5877
5885 5885 5885 5885 5885 5884 5884 5884 5884 5883 5882 5881 5881 5880 5880 5880 5879 5879 5878 5877 5877 5876 5876 5875 5874 5874 5873 5873 5872 5872 5872 5871 5871 5871 5871 5871 5871 5872 5872 5872 5873 5873 5874
5884 5884 5884 5884 5884 5883 5883 5882 5882 5881 5881 5880 5879 5878 5878 5878 5877 5877 5876 5875 5874 5874 5873 5873 5872 5872 5871 5871 5870 5870 5869 5869 5869 5869 5868 5869 5869 5869 5869 5869 5870 5870 5871
5883 5883 5883 5883 5882 5882 5881 5881 5880 5880 5879 5878 5878 5877 5876 5876 5875 5874 5874 5873 5872 5871 5871 5870 5870 5869 5869 5868 5868 5867 5867 5866 5866 5865 5865 5865 5866 5866 5866 5866 5867 5867 5868
5882 5882 5881 5881 5881 5880 5880 5879 5878 5878 5877 5876 5876 5875 5874 5873 5873 5872 5871 5870 5869 5869 5868 5867 5867 5866 5866 5865 5865 5864 5863 5863 5862 5862 5862 5862 5862 5863 5863 5863 5863 5864 5864
5880 5880 5880 5879 5878 5878 5877 5877 5876 5876 5875 5874 5873 5873 5872 5871 5870 5869 5868 5867 5867 5866 5865 5864 5864 5863 5862 5862 5861 5861 5860 5859 5859 5858 5858 5858 5859 5859 5859 5859 5859 5860 5861
5878 5878 5877 5877 5876 5876 5875 5875 5874 5874 5873 5872 5871 5870 5869 5869 5867 5866 5866 5865 5864 5863 5862 5861 5860 5859 5859 5858 5858 5857 5856 5856 5855 5855 5855 5855 5855 5854 5854 5854 5855 5856 5856
5876 5876 5875 5874 5874 5873 5873 5872 5872 5872 5871 5870 5869 5868 5867 5865 5864 5863 5863 5862 5861 5860 5858 5857 5857 5856 5855 5854 5853 5853 5852 5851 5851 5851 5851 5850 5850 5850 5850 5850 5851 5851 5852
5874 5873 5873 5872 5871 5871 5870 5870 5870 5869 5868 5867 5866 5865 5864 5862 5861 5860 5859 5858 5857 5856 5855 5854 5853 5852 5851 5850 5849 5848 5847 5846 5846 5846 5846 5846 5846 5845 5845 5845 5846 5846 5847
5871 5870 5870 5869 5869 5868 5868 5867 5867 5866 5865 5864 5863 5862 5860 5859 5858 5857 5855 5854 5853 5852 5851 5850 5849 5847 5846 5845 5844 5843 5843 5842 5841 5841 5841 5841 5841 5840 5840 5840 5841 5841 5842
5868 5868 5867 5867 5866 5866 5865 5864 5863 5862 5861 5860 5859 5858 5857 5855 5854 5853 5852 5850 5849 5848 5846 5845 5844 5843 5842 5841 5839 5838 5837 5836 5836 5835 5835 5835 5835 5835 5835 5835 5836 5836 5837
5866 5865 5865 5863 5863 5862 5862 5861 5859 5858 5857 5856 5855 5853 5852 5851 5850 5849 5847 5846 5845 5843 5842 5841 5840 5838 5837 5836 5835 5833 5832 5831 5830 5830 5830 5830 5830 5830 5830 5830 5830 5830 5831
5863 5862 5862 5861 5860 5859 5858 5857 5855 5854 5853 5851 5850 5849 5848 5846 5845 5844 5843 5842 5840 5838 5837 5836 5835 5833 5832 5831 5829 5828 5827 5826 5825 5824 5824 5824 5824 5824 5823 5823 5824 5824 5825
5860 5859 5858 5857 5856 5855 5854 5852 5851 5850 5848 5847 5845 5844 5843 5842 5840 5839 5838 5837 5835 5834 5832 5831 5829 5828 5827 5825 5824 5822 5821 5820 5819 5819 5818 5818 5818 5818 5817 5817 5817 5818 5819
5856 5855 5854 5853 5852 5851 5850 5848 5846 5845 5843 5842 5841 5839 5837 5836 5835 5834 5832 5831 5829 5828 5827 5825 5823 5822 5820 5819 5817 5816 5815 5814 5813 5813 5812 5812 5812 5811 5811 5811 5811 5812 5813
5852 5851 5850 5849 5848 5847 5845 5843 5842 5840 5838 5837 5836 5834 5832 5831 5830 5829 5827 5825 5824 5822 5820 5819 5817 5816 5814 5812 5811 5809 5808 5807 5807 5806 5805 5805 5805 5804 5804 5804 5804 5805 5806
5847 5847 5846 5845 5844 5842 5841 5839 5838 5836 5834 5832 5830 5829 5827 5826 5824 5823 5821 5819 5818 5816 5814 5812 5811 5809 5807 5805 5804 5802 5801 5800 5800 5799 5798 5797 5797 5798 5798 5798 5798 5798 5799
5842 5842 5842 5841 5839 5838 5837 5835 5833 5831 5829 5827 5825 5823 5822 5820 5819 5817 5815 5813 5811 5810 5808 5806 5804 5802 5800 5798 5797 5796 5794 5793 5792 5792 5791 5790 5790 5790 5791 5791 5792 5792 5793
5838 5838 5837 5836 5835 5834 5832 5830 5828 5826 5824 5822 5820 5818 5816 5814 5813 5811 5809 5807 5805 5804 5801 5799 5797 5795 5793 5791 5790 5789 5788 5787 5785 5785 5784 5784 5783 5783 5784 5784 5785 5785 5786
5833 5833 5833 5832 5830 5829 5828 5826 5824 5822 5819 5817 5815 5813 5810 5809 5807 5805 5803 5801 5799 5797 5794 5792 5790 5788 5786 5785 5783 5782 5781 5779 5779 5777 5777 5777 5777 5777 5777 5778 5778 5778 5779
5830 5829 5828 5827 5826 5824 5823 5821 5819 5817 5814 5812 5809 5807 5805 5803 5801 5798 5796 5795 5792 5790 5787 5785 5783 5781 5779 5777 5776 5775 5774 5772 5772 5771 5770 5770 5770 5770 5770 5771 5771 5772 5772
5825 5824 5823 5821 5820 5819 5817 5815 5813 5811 5809 5807 5804 5802 5799 5797 5794 5792 5790 5788 5786 5783 5780 5777 5775 5774 5772 5770 5769 5768 5767 5766 5765 5763 5763 5763 5763 5763 5764 5764 5764 5764 5765
5821 5819 5818 5816 5815 5813 5811 5809 5808 5805 5803 5801 5799 5797 5794 5791 5789 5786 5783 5781 5779 5776 5773 5771 5769 5767 5765 5763 5761 5760 5759 5758 5758 5757 5756 5756 5756 5757 5757 5757 5757 5757 5758
5816 5814 5812 5811 5809 5807 5805 5803 5802 5800 5798 5795 5793 5791 5788 5785 5783 5780 5777 5774 5772 5769 5767 5764 5762 5760 5758 5756 5755 5753 5752 5751 5750 5751 5750 5750 5750 5750 5750 5750 5750 5750 5750
5811 5809 5807 5805 5803 5801 5799 5797 5795 5794 5791 5789 5787 5785 5782 5779 5776 5773 5771 5768 5766 5762 5760 5758 5755 5753 5751 5749 5748 5746 5745 5744 5743 5743 5744 5743 5743 5743 5743 5743 5742 5742 5742
5807 5804 5802 5800 5797 5795 5793 5791 5789 5787 5785 5783 5781 5778 5776 5773 5770 5767 5764 5761 5759 5756 5754 5751 5749 5747 5745 5743 5741 5740 5739 5738 5737 5736 5736 5736 5736 5736 5735 5735 5735 5735 5735